GW1572 Weather Reports


time (UTC)temp
F
wind
direction
speed
knots
gust
knots
rain 1hr
in
rain 24hr
in
rain mn
in
humidity
%
barometer
mb
20260509171510 64 14 1.7 2.6 0.00 0.00 0.00 70 1002.0
20260509170921 65 325 3.5 5.2 0.00 0.00 0.00 70 1002.0
20260509170323 65 350 3.5 6.1 0.00 0.00 0.00 69 1002.3
20260509165719 64 328 1.7 1.7 0.00 0.00 0.00 68 1002.3
20260509165132 63 321 3.5 3.5 0.00 0.00 0.00 70 1002.3
20260509164539 63 13 1.7 2.6 0.00 0.00 0.00 71 1002.3
20260509163934 63 12 1.7 1.7 0.00 0.00 0.00 71 1002.7
20260509162115 64 344 2.6 3.5 0.00 0.00 0.00 70 1002.3
20260509161540 63 273 1.7 1.7 0.00 0.00 0.00 72 1002.7
20260509160930 63 299 2.6 3.5 0.00 0.00 0.00 71 1002.7
20260509160345 63 330 1.7 1.7 0.00 0.00 0.00 72 1002.3
20260509155716 63 341 0.9 1.7 0.00 0.00 0.00 71 1002.0
20260509154540 63 356 1.7 1.7 0.00 0.00 0.00 69 1002.0
20260509153940 63 307 1.7 1.7 0.00 0.00 0.00 71 1002.0
20260509153324 63 327 1.7 2.6 0.00 0.00 0.00 72 1002.0
20260509152127 62 314 0.9 1.7 0.00 0.00 0.00 71 1002.0
20260509150915 62 318 0.0 0.9 0.00 0.00 0.00 73 1002.0
20260509150315 62 315 0.9 0.9 0.00 0.00 0.00 74 1002.0
20260509145740 61 281 0.0 0.0 0.00 0.00 0.00 77 1002.0
20260509145127 61 264 0.0 0.0 0.00 0.00 0.00 76 1002.0
20260509144508 61 275 0.0 0.0 0.00 0.00 0.00 79 1002.0
20260509143907 60 277 0.0 0.0 0.00 0.00 0.00 77 1002.0
20260509142746 60 270 0.0 0.0 0.00 0.00 0.00 79 1002.0
20260509141517 60 279 0.0 0.0 0.00 0.00 0.00 82 1002.0
20260509140924 60 292 0.0 0.0 0.00 0.00 0.00 82 1002.3
20260509140344 60 280 0.0 0.0 0.00 0.00 0.00 81 1002.3
20260509135710 60 279 0.0 0.0 0.00 0.00 0.00 81 1002.7
20260509135112 60 273 0.0 0.0 0.00 0.00 0.00 80 1002.7
20260509134545 59 287 0.0 0.0 0.00 0.00 0.00 78 1002.7
20260509133914 60 300 0.9 0.9 0.00 0.00 0.00 79 1002.7
20260509132743 60 289 0.9 1.7 0.00 0.00 0.00 80 1002.0
20260509132132 59 273 0.0 0.9 0.00 0.00 0.00 80 1001.6
20260509131511 59 275 0.0 0.9 0.00 0.00 0.00 81 1002.0
20260509130917 58 259 0.0 0.9 0.00 0.00 0.00 82 1001.6
20260509130311 58 234 0.9 0.9 0.00 0.00 0.00 81 1001.6
20260509125721 58 263 0.0 0.9 0.00 0.00 0.00 82 1002.0
20260509125123 57 274 0.9 0.9 0.00 0.00 0.00 85 1002.3
20260509123935 56 286 0.9 0.9 0.00 0.00 0.00 85 1002.0
20260509123351 56 288 0.9 0.9 0.00 0.00 0.00 86 1002.0
20260509122746 57 272 0.0 0.0 0.00 0.00 0.00 87 1002.0
20260509122142 56 265 0.0 0.0 0.00 0.00 0.00 86 1002.3
20260509121510 56 265 0.0 0.0 0.00 0.00 0.00 87 1002.3
20260509120914 55 263 0.0 0.0 0.00 0.00 0.00 87 1002.3
20260509120320 55 257 0.0 0.9 0.00 0.00 0.00 88 1002.3
20260509115739 55 266 0.0 0.0 0.00 0.00 0.00 88 1002.3
20260509115121 54 250 0.0 0.0 0.00 0.00 0.00 88 1002.3
20260509113926 54 276 0.0 0.0 0.00 0.00 0.00 89 1002.0
20260509113325 54 276 0.0 0.0 0.00 0.00 0.00 90 1002.0
20260509112131 53 268 0.0 0.0 0.00 0.00 0.00 90 1002.0
20260509110934 53 269 0.0 0.0 0.00 0.00 0.00 90 1002.0
20260509110313 53 268 0.0 0.0 0.00 0.00 0.00 90 1002.0
20260509104545 53 262 0.0 0.0 0.00 0.00 0.00 90 1002.0
20260509103940 53 261 0.0 0.0 0.00 0.00 0.00 90 1001.6
20260509103313 53 286 0.0 0.0 0.00 0.00 0.00 90 1002.0
20260509102735 53 265 0.0 0.0 0.00 0.00 0.00 90 1002.0
20260509102123 53 258 0.0 0.0 0.00 0.00 0.00 90 1002.0
20260509101514 53 207 0.9 0.9 0.00 0.00 0.00 89 1001.6
20260509100920 53 210 0.9 1.7 0.00 0.00 0.00 89 1001.6
20260509100325 53 277 0.0 0.0 0.00 0.00 0.00 88 1001.3
20260509095736 53 274 0.0 0.0 0.00 0.00 0.00 88 1001.6
20260509095147 53 276 0.0 0.0 0.00 0.00 0.00 87 1001.6
20260509094533 53 283 0.0 0.0 0.00 0.00 0.00 87 1001.6
20260509093330 53 276 0.0 0.0 0.00 0.00 0.00 87 1001.6
20260509092117 53 271 0.0 0.0 0.00 0.00 0.00 86 1002.0
20260509090945 53 283 0.0 0.0 0.00 0.00 0.00 86 1001.6
20260509090350 53 284 0.9 0.9 0.00 0.00 0.00 85 1001.6
20260509085712 53 273 0.0 0.0 0.00 0.00 0.00 85 1001.3
20260509085139 53 262 0.0 0.0 0.00 0.00 0.00 86 1001.6
20260509084532 53 266 0.0 0.0 0.00 0.00 0.00 86 1001.6
20260509083918 53 266 0.0 0.0 0.00 0.00 0.00 86 1001.6
20260509083337 53 268 0.0 0.0 0.00 0.00 0.00 85 1001.6
20260509082747 53 268 0.0 0.0 0.00 0.00 0.00 84 1002.0
20260509080323 54 268 0.0 0.0 0.00 0.00 0.00 83 1002.0
20260509075754 54 266 0.0 0.0 0.00 0.00 0.00 82 1002.0
20260509075135 54 263 0.0 0.0 0.00 0.00 0.00 82 1002.0
20260509073323 54 269 0.0 0.0 0.00 0.00 0.00 81 1002.0
20260509072738 54 301 0.0 0.0 0.00 0.00 0.00 81 1001.6
20260509071519 54 321 0.0 0.0 0.00 0.00 0.00 81 1002.0
20260509070324 54 265 0.0 0.0 0.00 0.00 0.00 81 1002.3
20260509065751 55 266 0.0 0.0 0.00 0.00 0.00 81 1002.0
20260509064519 55 266 0.0 0.0 0.00 0.00 0.00 81 1002.0
20260509063913 55 266 0.0 0.0 0.00 0.00 0.00 81 1002.0
20260509063311 55 266 0.0 0.0 0.00 0.00 0.00 80 1002.0
20260509062719 55 193 0.0 0.0 0.00 0.00 0.00 80 1002.0
20260509062128 55 213 0.0 0.0 0.00 0.00 0.00 80 1002.0
20260509060912 55 233 0.0 0.0 0.00 0.00 0.00 79 1002.0
20260509060335 55 270 0.0 0.0 0.00 0.00 0.00 78 1002.0
20260509054513 55 269 0.0 0.0 0.00 0.00 0.00 78 1002.3
20260509053935 55 269 0.0 0.0 0.00 0.00 0.00 77 1002.3
20260509053346 55 266 0.0 0.0 0.00 0.00 0.00 78 1002.3
20260509052735 55 264 0.0 0.0 0.00 0.00 0.00 77 1002.3
20260509052136 56 263 0.0 0.0 0.00 0.00 0.00 76 1002.3
20260509051536 56 266 0.0 0.0 0.00 0.00 0.00 75 1002.3
20260509050939 56 213 0.0 0.0 0.00 0.00 0.00 75 1002.3
20260509045724 56 233 0.0 0.0 0.00 0.00 0.00 74 1002.0
20260509045135 56 233 0.0 0.0 0.00 0.00 0.00 74 1002.0
20260509044542 56 301 0.0 0.0 0.00 0.00 0.00 74 1002.3
20260509043947 56 264 0.0 0.0 0.00 0.00 0.00 74 1002.0
20260509043336 56 270 0.0 0.0 0.00 0.00 0.00 74 1002.3
20260509042740 56 271 0.0 0.0 0.00 0.00 0.00 74 1002.3
20260509042146 57 272 0.0 0.0 0.00 0.00 0.00 73 1002.3
20260509041539 57 272 0.0 0.0 0.00 0.00 0.00 72 1002.7
20260509040310 57 272 0.0 0.0 0.00 0.00 0.00 71 1002.7
20260509035750 57 268 0.0 0.0 0.00 0.00 0.00 73 1002.7
20260509035153 57 341 0.0 0.0 0.00 0.00 0.00 72 1002.7
20260509034542 57 268 0.0 0.0 0.00 0.00 0.00 71 1002.7
20260509033926 57 270 0.0 0.0 0.00 0.00 0.00 70 1002.7
20260509033318 58 276 0.0 0.0 0.00 0.00 0.00 71 1002.7
20260509031510 58 265 0.0 0.0 0.00 0.00 0.00 73 1003.0
20260509030315 58 273 0.0 0.0 0.00 0.00 0.00 72 1003.0
20260509025711 58 279 0.0 0.0 0.00 0.00 0.00 72 1003.0
20260509025140 58 275 0.0 0.0 0.00 0.00 0.00 74 1003.3
20260509024550 58 269 0.0 0.0 0.00 0.00 0.00 72 1002.7
20260509023918 59 279 0.0 0.0 0.00 0.00 0.00 71 1003.0
20260509023313 59 287 0.0 0.0 0.00 0.00 0.00 65 1003.0
20260509022717 59 273 0.0 0.0 0.00 0.00 0.00 65 1003.0
20260509021510 59 233 0.0 0.0 0.00 0.00 0.00 64 1003.0
20260509020909 59 271 0.0 0.0 0.00 0.00 0.00 64 1003.0
20260509020312 59 270 0.0 0.0 0.00 0.00 0.00 65 1003.0
20260509015739 60 274 0.0 0.0 0.00 0.00 0.00 66 1003.0
20260509015127 60 277 0.0 0.0 0.00 0.00 0.00 66 1003.0
20260509014516 60 341 0.0 0.0 0.00 0.00 0.00 64 1003.0
20260509013934 60 263 0.0 0.0 0.00 0.00 0.00 65 1003.0
20260509013344 60 275 0.0 0.0 0.00 0.00 0.00 64 1003.0
20260509012746 60 287 0.0 0.0 0.00 0.00 0.00 67 1002.7
20260509012113 60 287 0.0 0.0 0.00 0.00 0.00 64 1003.0
20260509010930 61 252 0.0 0.0 0.00 0.00 0.00 62 1002.7
20260509010308 61 260 0.0 0.0 0.00 0.00 0.00 62 1002.7
20260509005746 61 261 0.0 0.0 0.00 0.00 0.00 61 1003.0
20260509005138 61 273 0.0 0.0 0.00 0.00 0.00 64 1002.7
20260509004522 61 254 0.0 0.0 0.00 0.00 0.00 61 1002.7
20260509003315 61 271 0.0 0.0 0.00 0.00 0.00 61 1002.7
20260509002713 62 271 0.0 0.0 0.00 0.00 0.00 60 1003.0
20260509002119 62 253 0.0 0.0 0.00 0.00 0.00 59 1003.0
20260509001537 63 261 0.0 0.0 0.00 0.00 0.00 58 1003.0
20260509000941 64 254 0.0 0.0 0.00 0.00 0.00 60 1003.0
20260509000311 65 258 0.0 0.0 0.00 0.00 0.00 60 1003.0
20260508235713 66 304 0.0 0.0 0.00 0.00 0.00 57 1002.7
20260508235117 68 274 0.0 0.0 0.00 0.00 0.00 54 1002.7
20260508234534 70 255 0.0 0.0 0.00 0.00 0.00 50 1002.7
20260508233914 69 282 0.0 0.0 0.00 0.00 0.00 50 1003.0
20260508233309 69 337 0.0 0.0 0.00 0.00 0.00 53 1002.7
20260508232725 69 266 0.0 0.9 0.00 0.00 0.00 42 1002.7
20260508232135 70 308 1.7 1.7 0.00 0.00 0.00 39 1002.7
20260508231513 72 232 0.9 0.9 0.00 0.00 0.00 37 1002.7
20260508230947 72 349 1.7 1.7 0.00 0.00 0.00 40 1002.7
20260508230323 72 344 0.0 0.9 0.00 0.00 0.00 43 1002.7
20260508225749 70 308 1.7 1.7 0.00 0.00 0.00 40 1002.7
20260508225148 69 14 1.7 2.6 0.00 0.00 0.00 41 1003.0
20260508224518 70 23 2.6 3.5 0.00 0.00 0.00 40 1002.7
20260508223947 70 16 3.5 6.1 0.00 0.00 0.00 38 1003.0
20260508223318 72 343 3.5 5.2 0.00 0.00 0.00 37 1002.7
20260508222127 72 346 2.6 3.5 0.00 0.00 0.00 37 1002.7
20260508221541 72 332 2.6 2.6 0.00 0.00 0.00 38 1002.7
20260508220935 72 311 3.5 3.5 0.00 0.00 0.00 38 1003.0
20260508220310 72 2 4.3 7.0 0.00 0.00 0.00 40 1002.7
20260508215732 71 308 1.7 1.7 0.00 0.00 0.00 39 1002.7
20260508214546 72 263 2.6 5.2 0.00 0.00 0.00 38 1002.7
20260508213913 71 302 2.6 3.5 0.00 0.00 0.00 42 1003.0
20260508212116 72 320 2.6 3.5 0.00 0.00 0.00 40 1003.3
20260508211515 73 303 0.9 1.7 0.00 0.00 0.00 38 1003.0
20260508210918 74 330 2.6 3.5 0.00 0.00 0.00 41 1003.0
20260508210320 72 344 1.7 2.6 0.00 0.00 0.00 40 1002.7
20260508205739 71 337 4.3 6.1 0.00 0.00 0.00 41 1003.0
20260508205124 73 35 2.6 3.5 0.00 0.00 0.00 40 1003.0
20260508204551 72 1 2.6 2.6 0.00 0.00 0.00 39 1003.3
20260508203919 72 348 5.2 7.0 0.00 0.00 0.00 38 1003.3
20260508203320 73 16 2.6 2.6 0.00 0.00 0.00 39 1003.7
20260508202734 73 340 2.6 5.2 0.00 0.00 0.00 40 1003.3
20260508202114 73 314 5.2 8.7 0.00 0.00 0.00 39 1003.3
20260508201518 73 338 2.6 2.6 0.00 0.00 0.00 40 1003.3
20260508200949 74 354 2.6 3.5 0.00 0.00 0.00 43 1003.3
20260508200343 73 355 3.5 5.2 0.00 0.00 0.00 38 1003.3
20260508195740 73 6 3.5 6.1 0.00 0.00 0.00 44 1003.3
20260508195133 73 23 3.5 5.2 0.00 0.00 0.00 40 1003.7
20260508194552 72 299 1.7 2.6 0.00 0.00 0.00 39 1004.0
20260508193931 72 5 5.2 6.1 0.00 0.00 0.00 39 1004.4
20260508193322 71 294 2.6 2.6 0.00 0.00 0.00 43 1004.4
20260508192726 72 359 3.5 3.5 0.00 0.00 0.00 39 1004.4
20260508192146 72 15 3.5 3.5 0.00 0.00 0.00 41 1004.4
20260508191549 72 303 1.7 1.7 0.00 0.00 0.00 44 1004.4
20260508190936 72 309 2.6 2.6 0.00 0.00 0.00 47 1004.7
20260508190343 71 338 1.7 2.6 0.00 0.00 0.00 40 1004.7
20260508185114 72 270 1.7 3.5 0.00 0.00 0.00 42 1005.0
20260508184545 72 35 5.2 6.1 0.00 0.00 0.00 41 1005.0
20260508183944 71 323 1.7 2.6 0.00 0.00 0.00 43 1005.4
20260508183338 70 196 3.5 6.1 0.00 0.00 0.00 45 1005.4
20260508182736 70 315 3.5 6.1 0.00 0.00 0.00 41 1005.7
20260508181532 70 27 3.5 5.2 0.00 0.00 0.00 43 1005.7
20260508180921 71 358 4.3 7.0 0.00 0.00 0.00 42 1005.4
20260508180349 70 235 0.9 1.7 0.00 0.00 0.00 43 1005.4
20260508175740 71 329 2.6 2.6 0.00 0.00 0.00 43 1005.7
20260508175143 69 352 2.6 2.6 0.00 0.00 0.00 43 1006.0
20260508174511 70 10 5.2 7.0 0.00 0.00 0.00 43 1006.0
20260508173923 70 2 2.6 2.6 0.00 0.00 0.00 42 1006.0
20260508173320 69 297 5.2 6.1 0.00 0.00 0.00 51 1006.0
20260508172740 69 289 1.7 1.7 0.00 0.00 0.00 45 1006.0